Overview Statistics Trail Chart Weather Telemetry Raw packets
 

This is the latest recevied weather packets stored in our database for station/object KM5VY. If no packets are shown the sender has not sent any weather packets the latest 10 day(s).

<< 7 8 9 10 11 12 13 >>
Time Temp. Humidity Pressure Rain* Wind** Luminosity Snow
1788569812 21.11° C 53% 1023.7 hPa 0 mm - - -
1788569211 21.11° C 52% 1023.7 hPa 0 mm - - -
1788568610 21.67° C 51% 1023.7 hPa 0 mm - - -
1788568009 22.22° C 49% 1023.7 hPa 0 mm - - -
1788567408 23.33° C 48% 1023.7 hPa 0 mm - - -
1788566807 23.89° C 46% 1023.4 hPa 0 mm - - -
1788566206 24.44° C 42% 1023 hPa 0 mm - - -
1788565605 25° C 41% 1022.7 hPa 0 mm - - -
1788565004 25° C 40% 1022.3 hPa 0 mm - - -
1788564403 25.56° C 39% 1022.3 hPa 0 mm - - -
1788563802 25.56° C 39% 1022.3 hPa 0 mm - - -
1788563201 26.11° C 38% 1022.3 hPa 0 mm - - -
1788562600 26.67° C 38% 1022 hPa 0 mm - - -
1788561999 26.67° C 37% 1022.3 hPa 0 mm - - -
1788561398 27.22° C 37% 1022 hPa 0 mm - - -
1788560797 27.78° C 36% 1022 hPa 0 mm - - -
1788560196 28.33° C 37% 1022 hPa 0 mm - - -
1788559595 27.78° C 36% 1022 hPa 0 mm - - -
1788558994 28.33° C 37% 1022 hPa 0 mm - - -
1788558393 28.33° C 37% 1022 hPa 0 mm - - -
1788557792 28.33° C 37% 1022.3 hPa 0 mm - - -
1788557191 28.33° C 37% 1022.3 hPa 0 mm - - -
1788556590 28.33° C 37% 1022.3 hPa 0 mm - - -
1788555989 28.33° C 37% 1022.7 hPa 0 mm - - -
1788555388 28.33° C 37% 1022.7 hPa 0 mm - - -

* Rain latest hour (hover to see other rain measurements)
** Current wind speed in m/s (hover to see current wind gust speed)